TimeCST,TemperatureF,Dew PointF,Humidity,Sea Level PressureIn,VisibilityMPH,Wind Direction,Wind SpeedMPH,Gust SpeedMPH,PrecipitationIn,Events,Conditions,WindDirDegrees,DateUTC
12:15 AM,23.0,17.6,80,30.30,10.0,ESE,3.5,-,N/A,,Clear,110,2013-03-07 06:15:00
12:35 AM,23.0,17.6,80,30.30,10.0,Calm,Calm,-,N/A,,Clear,0,2013-03-07 06:35:00
12:55 AM,21.2,17.6,86,30.30,10.0,Calm,Calm,-,N/A,,Clear,0,2013-03-07 06:55:00
1:15 AM,21.2,17.6,86,30.30,10.0,SE,3.5,-,N/A,,Clear,130,2013-03-07 07:15:00
1:35 AM,21.2,17.6,86,30.30,10.0,Calm,Calm,-,N/A,,Clear,0,2013-03-07 07:35:00
1:55 AM,21.2,17.6,86,30.30,10.0,Calm,Calm,-,N/A,,Clear,0,2013-03-07 07:55:00
2:15 AM,21.2,17.6,86,30.29,10.0,Calm,Calm,-,N/A,,Clear,0,2013-03-07 08:15:00
2:35 AM,21.2,17.6,86,30.28,10.0,SE,3.5,-,N/A,,Clear,130,2013-03-07 08:35:00
2:55 AM,21.2,17.6,86,30.28,10.0,Calm,Calm,-,N/A,,Clear,0,2013-03-07 08:55:00
3:15 AM,21.2,17.6,86,30.28,10.0,Calm,Calm,-,N/A,,Clear,0,2013-03-07 09:15:00
3:35 AM,21.2,17.6,86,30.28,10.0,Calm,Calm,-,N/A,,Clear,0,2013-03-07 09:35:00
3:55 AM,19.4,17.6,93,30.29,10.0,Calm,Calm,-,N/A,,Clear,0,2013-03-07 09:55:00
4:15 AM,19.4,17.6,93,30.29,10.0,ENE,3.5,-,N/A,,Clear,70,2013-03-07 10:15:00
4:35 AM,19.4,15.8,86,30.28,10.0,Calm,Calm,-,N/A,,Clear,0,2013-03-07 10:35:00
4:55 AM,19.4,15.8,86,30.27,10.0,Calm,Calm,-,N/A,,Clear,0,2013-03-07 10:55:00
5:15 AM,19.4,15.8,86,30.28,10.0,Calm,Calm,-,N/A,,Clear,0,2013-03-07 11:15:00
5:35 AM,19.4,15.8,86,30.28,10.0,SE,5.8,-,N/A,,Clear,140,2013-03-07 11:35:00
5:55 AM,19.4,15.8,86,30.28,10.0,ESE,6.9,-,N/A,,Clear,110,2013-03-07 11:55:00
6:15 AM,19.4,15.8,86,30.28,10.0,SE,6.9,-,N/A,,Clear,130,2013-03-07 12:15:00
6:35 AM,19.4,15.8,86,30.29,10.0,ESE,4.6,-,N/A,,Clear,120,2013-03-07 12:35:00
6:55 AM,19.4,15.8,86,30.29,10.0,SE,5.8,-,N/A,,Clear,140,2013-03-07 12:55:00
7:15 AM,19.4,15.8,86,30.30,10.0,SE,5.8,-,N/A,,Clear,140,2013-03-07 13:15:00
7:35 AM,19.4,17.6,93,30.30,10.0,SE,5.8,-,N/A,,Clear,140,2013-03-07 13:35:00
7:55 AM,21.2,17.6,86,30.30,10.0,SE,5.8,-,N/A,,Clear,130,2013-03-07 13:55:00
8:15 AM,21.2,17.6,86,30.30,10.0,SE,8.1,-,N/A,,Clear,130,2013-03-07 14:15:00
8:35 AM,24.8,19.4,80,30.30,10.0,SE,9.2,-,N/A,,Clear,130,2013-03-07 14:35:00
8:55 AM,24.8,19.4,80,30.30,10.0,SE,8.1,-,N/A,,Clear,130,2013-03-07 14:55:00
9:15 AM,26.6,19.4,74,30.30,10.0,SSE,11.5,-,N/A,,Clear,150,2013-03-07 15:15:00
9:35 AM,28.4,21.2,74,30.29,10.0,SE,8.1,-,N/A,,Clear,140,2013-03-07 15:35:00
9:55 AM,28.4,21.2,74,30.29,10.0,SE,8.1,-,N/A,,Clear,140,2013-03-07 15:55:00
10:15 AM,28.4,21.2,74,30.28,10.0,SE,11.5,-,N/A,,Clear,140,2013-03-07 16:15:00
10:35 AM,30.2,21.2,69,30.27,10.0,SE,10.4,-,N/A,,Clear,140,2013-03-07 16:35:00
10:55 AM,32.0,23.0,69,30.27,10.0,SSE,10.4,-,N/A,,Clear,150,2013-03-07 16:55:00
11:15 AM,33.8,24.8,70,30.26,10.0,SSE,9.2,-,N/A,,Clear,150,2013-03-07 17:15:00
11:35 AM,33.8,24.8,70,30.25,10.0,SE,9.2,-,N/A,,Clear,130,2013-03-07 17:35:00
11:55 AM,35.6,24.8,65,30.25,10.0,SE,12.7,16.1,N/A,,Clear,130,2013-03-07 17:55:00
12:15 PM,37.4,26.6,65,30.24,10.0,SE,10.4,-,N/A,,Clear,130,2013-03-07 18:15:00
12:35 PM,37.4,26.6,65,30.22,10.0,SE,10.4,17.3,N/A,,Clear,130,2013-03-07 18:35:00
12:55 PM,39.2,26.6,61,30.22,10.0,SSE,11.5,16.1,N/A,,Clear,150,2013-03-07 18:55:00
1:15 PM,39.2,26.6,61,30.21,10.0,SE,9.2,16.1,N/A,,Clear,140,2013-03-07 19:15:00
1:35 PM,39.2,28.4,65,30.20,10.0,ESE,9.2,-,N/A,,Clear,120,2013-03-07 19:35:00
1:55 PM,39.2,28.4,65,30.18,10.0,SE,10.4,-,N/A,,Clear,130,2013-03-07 19:55:00
2:15 PM,42.8,28.4,57,30.17,10.0,SSE,10.4,17.3,N/A,,Clear,150,2013-03-07 20:15:00
2:35 PM,42.8,28.4,57,30.16,10.0,SE,11.5,16.1,N/A,,Clear,140,2013-03-07 20:35:00
2:55 PM,42.8,26.6,53,30.16,10.0,SSE,11.5,16.1,N/A,,Clear,150,2013-03-07 20:55:00
3:15 PM,42.8,26.6,53,30.16,10.0,SE,8.1,-,N/A,,Clear,140,2013-03-07 21:15:00
3:35 PM,42.8,28.4,57,30.16,10.0,SE,9.2,-,N/A,,Clear,140,2013-03-07 21:35:00
3:55 PM,42.8,26.6,53,30.16,10.0,SE,10.4,-,N/A,,Clear,140,2013-03-07 21:55:00
4:15 PM,42.8,28.4,57,30.16,10.0,ESE,8.1,11.5,N/A,,Clear,120,2013-03-07 22:15:00
4:35 PM,42.8,26.6,53,30.16,10.0,ESE,9.2,-,N/A,,Clear,120,2013-03-07 22:35:00
4:55 PM,41.0,26.6,57,30.16,10.0,ESE,10.4,-,N/A,,Clear,120,2013-03-07 22:55:00
5:15 PM,39.2,26.6,61,30.16,10.0,SE,9.2,-,N/A,,Clear,130,2013-03-07 23:15:00
5:35 PM,39.2,26.6,61,30.16,10.0,SE,10.4,-,N/A,,Clear,130,2013-03-07 23:35:00
5:55 PM,37.4,26.6,65,30.17,10.0,SE,5.8,-,N/A,,Clear,140,2013-03-07 23:55:00
7:35 PM,33.8,24.8,70,30.19,10.0,SSE,4.6,-,N/A,,Clear,150,2013-03-08 01:35:00
7:55 PM,33.8,24.8,70,30.19,10.0,SE,8.1,-,N/A,,Clear,140,2013-03-08 01:55:00
8:15 PM,32.0,24.8,75,30.19,10.0,SSE,5.8,-,N/A,,Clear,150,2013-03-08 02:15:00
8:35 PM,32.0,24.8,75,30.20,10.0,SE,4.6,-,N/A,,Clear,130,2013-03-08 02:35:00
8:55 PM,32.0,24.8,75,30.20,10.0,ESE,5.8,-,N/A,,Clear,120,2013-03-08 02:55:00
9:15 PM,32.0,24.8,75,30.21,10.0,ESE,5.8,-,N/A,,Clear,120,2013-03-08 03:15:00
9:35 PM,32.0,24.8,75,30.21,10.0,Calm,Calm,-,N/A,,Clear,0,2013-03-08 03:35:00
9:55 PM,30.2,24.8,80,30.21,10.0,SE,6.9,-,N/A,,Clear,130,2013-03-08 03:55:00
10:15 PM,30.2,24.8,80,30.21,10.0,SE,5.8,-,N/A,,Clear,130,2013-03-08 04:15:00
10:35 PM,30.2,24.8,80,30.21,10.0,SE,5.8,-,N/A,,Clear,130,2013-03-08 04:35:00
10:55 PM,30.2,24.8,80,30.22,10.0,SE,5.8,-,N/A,,Clear,140,2013-03-08 04:55:00
11:15 PM,30.2,24.8,80,30.22,10.0,SE,4.6,-,N/A,,Clear,130,2013-03-08 05:15:00
11:35 PM,30.2,23.0,75,30.22,10.0,SE,6.9,-,N/A,,Clear,140,2013-03-08 05:35:00
11:55 PM,30.2,23.0,75,30.22,10.0,SE,6.9,-,N/A,,Clear,140,2013-03-08 05:55:00